Tracking 21076 objects as of 7-Aug-2020
HD Live streaming from Space Station
objects crossing your sky now

FREGAT DEB

Track FREGAT DEB now!
10-day predictions


NORAD ID: 45850
Int'l Code: 2011-037CL
Perigee: 575.5 km
Apogee: 3,330.8 km
Inclination: 51.2 °
Period: 126.0 minutes
Semi major axis: 8324 km
RCS: Unknown
Launch date: July 18, 2011
Source: Commonwealth of Independent States (former USSR) (CIS)
Launch site: TYURATAM MISSILE AND SPACE COMPLEX (TTMTR)

Note: This is SATELLITE DEBRIS
aabbcc
Your satellite tracking list
Your tracking list is empty




NASA's NSSDC Master Catalog

Two Line Element Set (TLE):
1 45850U 11037CL  20219.51691045  .00013162  00000-0  87165-2 0  9991
2 45850  51.2076 220.7566 1655048 173.2183 189.4392 11.43124411  7945
Source of the keplerian elements: AFSPC